Riverside, CA

4:39 PM PDT on June 22, 2018 (GMT -0700)
Riverside Municipal

Weather History for KRAL - October, 2017

Change the Weather History Date:

Saturday, October 7, 2017

  Actual Average Record
Temperature  
Mean Temperature 77 °F 71 °F  
Max Temperature 97 °F 84 °F 107 °F (1996)
Min Temperature 57 °F 57 °F 35 °F (1916)
Degree Days  
Heating Degree Days 0 0  
Month to date heating degree days 0 0  
Since 1 July heating degree days 1 2  
Cooling Degree Days 12 6  
Month to date cooling degree days 49 48  
Year to date cooling degree days 2044 1640  
Growing Degree Days 29 (Base 50)    
Moisture  
Dew Point 31 °F    
Average Humidity 24    
Maximum Humidity 42    
Minimum Humidity 6    
Precipitation  
Precipitation 0.00 in 0.00 in 0.30 in (1923)
Month to date precipitation 0.00 0.02  
Year to date precipitation 8.46 9.61  
Sea Level Pressure  
Sea Level Pressure 29.77 in    
Wind  
Wind Speed 5 mph (North)    
Max Wind Speed 17 mph    
Max Gust Speed 22 mph    
Visibility 10 miles    
Events      
T = Trace of Precipitation, MM = Missing Value Source: NWS Daily Summary

Daily Weather History Graph

Daily Weather History Graph

Search for Another Location

Airport or City:

Astronomy

Oct. 07, 2017 Rise Set
Actual Time 6:48 AM PDT 6:25 PM PDT
Civil Twilight 6:23 AM PDT 6:50 PM PDT
Nautical Twilight 5:54 AM PDT 7:19 PM PDT
Astronomical Twilight 5:25 AM PDT 7:48 PM PDT
Moon 8:11 PM PDT (10/7) 8:44 AM PDT (10/7)
Length of Visible Light 12h 26m
Length of Day
11h 36m
Waning Gibbous, 95% of the Moon is Illuminated
Oct 7
Waning Gibbous
Oct 12
Last Quarter
Oct 19
New
Oct 27
First Quarter
Nov 3
Full

Hourly Weather History & Observations

Time (PDT) Temp. Dew Point Humidity Pressure Visibility Wind Dir Wind Speed Gust Speed Precip Events Conditions
12:53 AM 69.1 °F 28.0 °F 22% 29.84 in 10.0 mi ENE 5.8 mph - N/A   Clear
1:53 AM 66.0 °F 28.9 °F 25% 29.83 in 10.0 mi East 6.9 mph - N/A   Clear
2:53 AM 64.0 °F 30.0 °F 28% 29.83 in 10.0 mi ENE 4.6 mph - N/A   Clear
3:53 AM 64.0 °F 28.0 °F 26% 29.81 in 10.0 mi ENE 6.9 mph - N/A   Clear
4:53 AM 63.0 °F 28.0 °F 27% 29.81 in 10.0 mi NE 4.6 mph - N/A   Clear
5:53 AM 62.1 °F 28.0 °F 28% 29.81 in 10.0 mi ENE 4.6 mph - N/A   Clear
6:53 AM 61.0 °F 27.0 °F 27% 29.81 in 10.0 mi ENE 3.5 mph - N/A   Clear
7:53 AM 63.0 °F 32.0 °F 31% 29.82 in 10.0 mi East 3.5 mph - N/A   Clear
8:53 AM 72.0 °F 30.0 °F 21% 29.82 in 10.0 mi ENE 3.5 mph - N/A   Scattered Clouds
9:53 AM 80.1 °F 30.9 °F 17% 29.82 in 10.0 mi Calm Calm - N/A   Clear
10:53 AM 87.1 °F 28.9 °F 12% 29.81 in 10.0 mi WSW 4.6 mph - N/A   Partly Cloudy
11:53 AM 93.0 °F 18.0 °F 6% 29.79 in 10.0 mi Calm Calm - N/A   Partly Cloudy
12:53 PM 93.9 °F 23.0 °F 8% 29.76 in 10.0 mi WNW 5.8 mph - N/A   Clear
1:53 PM 96.1 °F 23.0 °F 7% 29.73 in 10.0 mi Variable 3.5 mph - N/A   Clear
2:53 PM 97.0 °F 25.0 °F 8% 29.71 in 10.0 mi West 8.1 mph - N/A   Clear
3:53 PM 96.1 °F 35.1 °F 12% 29.70 in 10.0 mi West 12.7 mph 19.6 mph N/A   Clear
4:53 PM 93.0 °F 28.0 °F 10% 29.70 in 10.0 mi West 17.3 mph - N/A   Clear
5:53 PM 88.0 °F 36.0 °F 16% 29.70 in 10.0 mi West 12.7 mph - N/A   Clear
6:53 PM 82.9 °F 33.1 °F 17% 29.71 in 10.0 mi West 6.9 mph - N/A   Clear
7:53 PM 79.0 °F 37.0 °F 22% 29.72 in 10.0 mi West 4.6 mph - N/A   Clear
8:53 PM 75.0 °F 43.0 °F 32% 29.72 in 10.0 mi Calm Calm - N/A   Clear
9:53 PM 72.0 °F 42.1 °F 34% 29.72 in 10.0 mi Calm Calm - N/A   Clear
10:53 PM 69.1 °F 41.0 °F 36% 29.73 in 10.0 mi Calm Calm - N/A   Clear
11:53 PM 66.0 °F 42.1 °F 42% 29.72 in 10.0 mi Calm Calm - N/A   Clear